Temperature
14 14 15 14 14 14 14 14 14 14 15 15 15 15 15 15 15 15 15 15 15 15 15 15 15 15 15 15 15 15 15 15 15 15 15 15 15 15 15 15 15 15 15
14 14 14 14 14 14 14 14 14 14 14 14 14 14 14 15 14 14 14 14 14 15 15 15 15 15 15 15 15 15 15 15 15 15 15 15 15 15 15 15 15 15 15
14 14 14 14 14 14 14 14 14 14 14 14 14 14 14 14 14 14 14 14 14 14 15 15 15 15 15 15 15 15 15 15 15 15 14 14 14 15 15 15 15 15 15
13 13 13 14 14 14 14 14 14 14 14 14 14 14 14 14 14 14 14 14 14 14 14 14 14 14 14 14 14 14 14 14 14 14 14 13 14 14 15 15 15 15 15
13 13 13 13 13 14 14 14 14 14 14 14 14 14 14 14 14 14 14 14 14 14 14 14 14 14 14 14 14 14 14 14 14 14 13 13 14 14 14 14 14 15 14
13 13 13 13 13 13 13 14 14 13 13 14 14 13 13 14 14 14 14 14 14 14 14 14 14 14 14 14 14 14 14 14 14 13 13 13 13 14 14 14 14 14 14
13 13 13 13 13 13 13 13 13 13 13 13 13 13 13 13 14 14 14 14 14 14 14 14 14 14 14 14 14 14 14 14 13 13 13 13 13 14 14 14 14 14 14
12 13 13 13 13 13 13 13 13 13 13 13 13 13 13 13 13 13 13 13 14 14 13 13 13 13 14 14 14 14 14 13 13 13 13 13 13 13 13 13 14 14 14
12 12 12 12 12 13 13 13 13 13 13 13 13 13 13 13 13 13 13 13 13 13 13 13 13 13 13 13 13 13 13 13 13 13 13 12 13 13 13 13 13 13 13
12 12 12 12 12 12 12 12 12 13 13 13 13 13 12 12 13 13 13 13 13 13 13 13 13 13 13 13 13 13 13 13 12 12 12 12 13 13 13 13 13 13 13
12 12 12 12 12 12 12 12 12 12 12 12 12 12 12 12 12 12 12 13 13 13 13 13 13 13 13 13 13 13 13 12 12 12 12 12 13 13 13 13 13 13 13
11 11 12 12 12 12 12 12 12 12 12 12 12 12 12 12 12 12 12 12 12 12 12 12 12 12 12 12 12 12 12 12 12 12 12 12 12 12 12 12 12 12 12
11 11 11 11 11 11 11 11 11 11 11 11 11 11 11 11 12 12 12 12 12 12 12 12 12 12 12 12 12 12 12 12 12 12 12 12 12 12 12 12 12 12 12
10 10 10 10 10 11 11 10 11 11 11 11 11 11 11 11 11 11 11 11 11 11 12 11 11 11 12 11 12 11 11 11 11 11 12 12 12 12 12 12 12 12 12
9 10 10 10 10 10 10 10 10 10 10 10 10 10 10 10 11 11 11 11 11 11 11 11 11 11 11 11 11 11 11 11 11 11 11 11 11 11 11 11 11 11 11
9 9 9 9 9 9 10 10 10 10 10 10 10 10 10 10 10 10 10 10 10 10 11 11 11 11 11 11 11 11 11 11 11 11 11 11 11 11 11 11 11 11 11
9 9 9 9 9 9 9 9 9 9 9 9 9 9 9 10 10 10 10 10 10 10 10 10 10 10 10 10 10 10 11 11 11 10 10 10 10 10 10 11 11 11 11
8 8 8 8 8 8 8 8 8 8 8 9 9 9 9 9 9 9 9 9 9 9 9 10 10 10 10 10 10 10 10 10 10 10 10 10 10 10 10 10 10 10 10
7 7 8 8 8 8 8 8 8 8 8 8 8 8 8 9 9 9 9 9 9 9 9 9 9 9 9 9 9 9 9 9 9 9 9 9 9 9 9 10 10 10 10
7 7 7 7 7 7 7 7 7 7 7 7 7 7 8 8 8 8 8 8 8 8 8 8 9 9 9 9 9 9 9 9 9 9 9 9 9 9 9 9 9 9 9
6 6 6 6 6 6 6 6 6 6 7 7 7 7 7 7 7 7 7 8 8 8 8 8 8 8 8 8 8 8 8 8 8 8 9 8 9 9 9 9 9 9 9
5 6 6 6 6 5 6 6 6 6 6 6 6 6 6 6 7 7 7 7 7 7 7 7 7 8 8 8 8 7 7 7 7 8 8 8 8 8 8 8 8 8 8
4 5 5 5 5 5 5 5 5 5 5 5 5 5 6 6 6 6 6 6 6 7 7 7 7 7 7 7 7 7 7 7 7 7 7 8 8 8 8 8 8 8 8
3 4 4 4 4 4 4 4 4 4 4 5 5 5 5 5 5 6 6 6 6 6 6 6 7 7 7 7 7 7 7 7 7 6 7 7 7 7 7 7 8 8 8
3 3 3 3 3 3 3 3 3 3 3 4 4 4 5 5 5 5 5 5 5 5 6 6 6 6 6 6 7 7 7 7 7 7 6 6 7 7 7 7 7 7 7
2 2 2 2 3 3 3 3 3 3 3 3 3 3 4 4 4 4 4 5 5 5 5 5 5 6 6 6 6 6 6 6 6 6 6 6 6 6 7 7 7 7 7
Wind_Speed
4 4 4 4 5 6 6 7 7 7 7 7 7 7 7 7 7 8 9 9 9 9 9 9 10 11 11 12 12 12 12 13 13 14 14 14 13 14 13 11 11 14 15
5 5 5 5 6 6 7 6 7 7 7 7 6 6 7 7 7 7 8 8 8 8 9 9 10 10 11 11 12 12 12 12 13 12 12 13 13 13 12 12 11 13 14
5 6 6 5 6 7 7 7 7 6 7 7 7 6 6 6 6 7 7 7 8 8 8 9 9 10 10 11 11 11 11 11 11 9 7 10 12 12 12 12 12 13 13
5 5 5 6 6 7 7 6 6 6 6 6 6 6 6 6 6 6 6 7 7 8 8 9 9 9 9 10 10 10 10 10 8 5 7 8 10 11 11 11 12 12 12
5 5 5 5 6 6 6 6 5 5 6 6 5 5 5 5 5 5 6 6 7 7 8 8 9 8 8 8 9 9 9 9 6 4 7 8 9 10 10 10 11 11 11
4 4 5 5 5 5 6 5 5 5 5 5 5 5 5 5 5 6 6 6 6 7 7 8 8 7 7 8 8 8 8 7 4 6 6 7 8 9 9 10 10 11 11
4 4 4 4 4 5 5 5 4 4 4 4 4 5 5 5 5 5 5 5 6 6 7 7 7 7 7 7 8 8 8 5 4 5 5 6 8 8 9 9 10 10 10
3 3 4 4 4 4 4 4 4 4 4 4 4 4 4 4 4 5 5 4 4 5 6 7 7 7 7 8 8 7 7 4 4 5 5 6 7 7 7 8 9 9 10
4 3 4 4 4 4 4 5 5 4 4 3 3 3 4 4 4 4 4 4 4 5 6 7 7 7 7 7 7 7 6 4 4 4 4 5 6 6 7 7 8 9 9
4 3 3 3 3 3 3 4 4 4 4 4 4 4 4 4 4 4 3 4 4 5 6 6 6 7 7 7 7 6 5 3 3 4 3 5 6 6 6 7 7 8 8
3 3 3 3 2 2 2 3 2 3 3 3 3 3 2 2 2 3 3 4 4 5 5 6 6 6 7 7 6 5 3 3 3 3 3 5 5 6 6 7 7 7 8
1 1 2 2 2 2 2 2 1 1 1 1 1 1 1 0 1 2 4 4 5 5 5 5 5 5 4 4 5 4 3 3 2 3 4 5 4 6 7 7 7 7 8
1 1 2 2 2 2 2 1 1 1 1 1 1 1 1 1 1 1 2 3 3 3 3 4 4 3 3 3 3 3 3 2 2 3 4 6 5 5 6 7 7 7 7
1 1 1 2 1 1 1 1 1 1 1 1 1 1 1 1 0 0 1 1 1 1 1 2 2 2 2 3 3 3 3 2 2 3 5 6 5 5 5 5 5 6 6
2 2 2 1 1 1 1 1 1 1 1 1 1 0 0 1 0 0 0 1 0 1 1 1 2 2 2 2 2 3 3 2 2 2 4 6 5 4 5 5 5 5 5
3 3 2 1 1 1 1 1 1 1 1 1 1 1 1 1 1 1 1 1 1 1 1 1 2 2 2 2 2 2 2 2 2 3 3 5 5 4 4 4 4 5 5
4 3 2 1 1 1 1 1 1 1 1 1 1 1 1 1 2 2 1 1 1 2 2 2 2 2 2 2 2 2 2 2 2 3 3 3 4 4 4 4 4 4 4
4 3 2 2 1 1 1 1 1 1 1 1 1 2 2 2 2 2 2 2 2 2 2 2 2 2 2 2 2 2 2 2 2 2 3 3 3 3 4 4 3 3 2
5 4 3 2 2 2 2 1 1 1 2 2 2 2 2 2 2 2 2 2 3 2 2 2 2 2 3 2 2 2 2 2 2 2 3 3 3 2 2 3 3 2 2
6 5 4 3 3 3 2 2 2 2 2 3 2 2 2 2 2 2 2 3 3 3 2 2 2 2 2 3 3 2 1 1 2 2 2 2 2 2 1 1 1 2 1
7 6 6 4 4 3 2 2 2 2 2 2 3 3 3 2 2 2 2 3 3 4 4 4 3 3 3 3 3 2 2 2 2 1 2 2 2 2 2 1 1 1 1
7 7 6 5 4 3 2 2 2 3 2 3 3 3 3 2 2 2 3 3 3 3 5 5 4 3 3 4 3 3 3 3 2 2 2 2 2 2 1 1 1 1 2
8 7 6 6 5 4 4 3 3 2 2 2 3 3 3 3 3 3 4 3 4 4 5 6 6 6 4 4 4 3 3 3 2 3 3 2 2 2 2 2 1 1 2
8 7 6 6 5 5 4 3 3 3 4 4 4 4 4 4 3 4 4 4 4 4 5 6 6 5 5 5 4 3 2 2 2 3 3 3 3 2 2 2 2 2 2
8 7 6 6 5 5 4 4 3 4 4 4 4 5 4 3 3 4 4 4 4 4 5 6 6 6 6 6 4 3 3 2 3 3 3 4 3 3 3 3 2 2 3
8 7 6 6 6 5 5 5 5 5 5 5 5 5 4 3 3 4 4 4 4 4 5 5 6 7 6 6 5 5 5 4 4 4 3 4 4 3 3 3 3 3 3
Wind_Direction
158 155 145 140 127 115 107 106 101 100 102 101 103 102 99 94 89 87 87 85 86 86 90 94 95 94 92 89 88 86 85 84 83 82 83 85 86 87 86 85 92 92 92
149 148 133 130 121 114 108 105 104 103 102 100 103 107 102 98 92 91 90 86 86 88 91 93 94 95 94 93 92 92 91 89 86 85 91 92 86 86 86 79 75 91 93
141 143 140 123 117 112 110 105 100 101 102 100 101 105 105 103 97 93 88 87 86 87 92 95 95 93 93 95 94 94 93 91 89 92 105 100 94 89 90 88 87 93 95
138 140 137 122 118 113 108 107 106 100 98 101 100 100 101 103 98 94 89 88 90 89 94 97 97 95 95 94 95 97 97 93 90 102 100 95 100 97 96 95 96 95 95
133 131 115 116 119 114 111 106 107 105 97 94 96 98 99 101 101 95 90 85 94 98 98 99 99 99 101 100 100 102 102 97 100 107 95 94 98 102 102 100 99 98 98
128 124 113 102 107 112 110 105 103 104 101 96 94 97 100 100 99 94 89 83 96 104 105 102 102 101 106 108 105 105 106 107 130 103 97 95 97 99 104 104 105 105 103
113 98 102 91 94 96 100 102 103 103 106 104 98 98 101 102 102 98 92 85 100 108 107 103 104 105 105 111 111 106 103 103 112 106 101 98 90 92 104 104 107 107 105
98 90 91 84 79 86 88 87 94 95 95 100 100 98 102 102 109 109 99 90 101 110 109 105 102 105 108 109 108 105 103 112 117 111 108 103 89 97 105 109 109 110 108
82 78 75 84 85 79 75 75 74 75 81 86 96 100 98 109 113 117 112 102 104 111 112 112 108 103 106 108 108 106 103 99 119 111 108 101 94 103 107 112 112 112 113
71 59 54 63 70 79 86 72 67 70 70 69 76 84 99 123 130 125 126 112 106 114 111 111 112 105 105 106 107 110 118 142 123 118 111 98 99 111 108 110 112 114 117
64 48 37 38 49 58 71 69 74 81 75 79 84 83 112 161 159 156 126 114 108 115 117 114 115 114 111 114 111 117 143 147 131 113 101 89 106 118 112 110 113 116 124
48 26 21 25 31 41 56 64 55 74 88 78 84 93 131 173 135 134 114 118 119 120 121 118 117 129 143 138 134 149 148 141 127 113 95 90 110 123 118 112 113 113 119
274 347 8 10 29 39 42 43 37 41 42 39 64 71 89 107 106 126 131 125 134 149 144 135 139 136 143 140 149 150 145 141 125 117 105 95 103 112 116 113 112 116 116
303 300 337 359 17 30 35 29 8 27 21 25 22 85 95 104 132 132 147 135 152 160 161 167 145 138 136 139 149 148 147 147 136 122 97 97 101 106 112 116 116 123 127
310 304 291 344 354 1 17 355 341 330 333 8 5 32 212 184 208 198 190 159 178 170 176 177 164 151 144 136 137 146 145 144 146 135 110 98 101 102 107 116 121 126 132
311 305 304 306 329 347 9 349 336 339 321 297 303 308 271 232 219 209 208 192 188 204 187 173 171 162 147 136 137 144 145 143 149 146 133 116 98 94 105 114 124 129 133
323 321 320 309 326 313 313 321 332 331 297 289 312 290 284 264 236 220 212 201 209 206 191 176 173 165 151 146 149 145 135 139 149 148 147 142 125 103 100 106 108 122 128
344 344 341 342 333 319 324 330 334 317 308 310 306 292 287 277 252 228 217 208 212 214 195 186 193 181 175 166 158 152 140 133 142 152 147 140 128 124 108 96 95 102 117
359 354 358 351 347 339 335 350 354 355 341 327 318 313 302 286 267 239 225 211 204 204 200 201 201 192 181 169 162 152 150 147 147 148 141 134 123 116 115 99 92 87 106
11 10 6 5 2 356 355 356 4 4 355 338 327 317 308 288 270 254 232 220 209 206 204 207 200 194 184 169 154 144 136 142 150 144 146 139 133 133 134 126 134 111 132
16 13 12 6 6 7 352 336 326 323 315 322 318 307 298 289 277 259 246 231 223 214 208 201 197 191 185 172 160 154 144 146 164 158 158 161 151 153 157 153 154 167 174
12 9 6 2 356 354 338 323 310 310 299 302 307 301 289 286 284 270 254 241 231 222 210 202 199 200 199 194 191 179 180 184 183 182 182 186 189 174 173 188 188 177 185
6 1 357 353 348 343 338 339 338 334 326 318 305 302 299 286 275 268 258 245 235 228 217 209 208 209 206 205 211 204 197 199 177 179 196 202 208 205 199 205 214 206 200
356 351 351 348 343 341 337 330 323 307 299 297 295 292 298 287 276 266 258 249 239 233 226 218 216 219 210 207 206 225 235 184 188 181 192 204 212 216 217 214 209 209 203
351 347 344 342 339 334 332 321 308 304 303 305 300 292 294 292 282 277 265 254 244 239 234 230 221 221 218 215 205 196 196 196 208 209 200 198 208 213 220 224 220 217 207
351 348 345 340 336 331 321 318 307 301 306 308 302 297 294 291 283 280 277 266 253 245 237 236 231 223 224 223 217 206 203 199 198 209 215 209 214 212 221 222 222 217 207
Height
1539 1540 1540 1541 1542 1543 1543 1544 1544 1544 1544 1545 1545 1545 1545 1545 1545 1545 1545 1545 1545 1545 1545 1545 1545 1546 1546 1546 1546 1546 1546 1546 1546 1546 1546 1546 1547 1547 1547 1547 1547 1547 1547
1540 1540 1541 1542 1543 1543 1543 1544 1544 1545 1545 1545 1545 1545 1545 1545 1546 1546 1546 1546 1546 1546 1546 1546 1546 1546 1546 1547 1547 1547 1547 1547 1548 1548 1548 1548 1548 1548 1548 1548 1549 1549 1549
1540 1541 1541 1542 1543 1543 1544 1544 1545 1545 1545 1545 1546 1546 1546 1546 1546 1546 1546 1546 1546 1546 1547 1547 1547 1547 1547 1548 1548 1548 1548 1549 1549 1549 1550 1551 1550 1550 1550 1550 1550 1550 1551
1540 1541 1542 1543 1543 1544 1544 1544 1545 1545 1545 1546 1546 1546 1546 1546 1546 1546 1547 1547 1547 1547 1547 1547 1548 1548 1548 1548 1549 1549 1549 1550 1550 1551 1552 1552 1552 1551 1551 1552 1552 1552 1552
1541 1542 1542 1543 1544 1544 1544 1544 1545 1545 1545 1546 1546 1546 1546 1546 1546 1547 1547 1547 1547 1547 1548 1548 1548 1548 1549 1549 1549 1550 1550 1551 1551 1552 1553 1553 1553 1552 1553 1553 1553 1553 1553
1541 1542 1543 1543 1544 1544 1544 1544 1545 1545 1545 1545 1545 1546 1546 1546 1546 1546 1547 1547 1547 1547 1548 1548 1548 1549 1549 1549 1550 1550 1551 1552 1552 1553 1553 1554 1554 1553 1554 1554 1554 1554 1555
1542 1542 1543 1543 1544 1544 1544 1544 1544 1545 1545 1545 1545 1545 1545 1546 1546 1546 1546 1547 1547 1547 1548 1548 1548 1549 1549 1550 1550 1551 1551 1552 1553 1553 1554 1554 1554 1554 1554 1555 1555 1556 1556
1541 1542 1542 1543 1543 1544 1544 1544 1544 1544 1544 1544 1545 1545 1545 1545 1545 1546 1546 1546 1547 1547 1548 1548 1548 1549 1549 1550 1550 1551 1551 1552 1553 1554 1554 1555 1555 1555 1555 1556 1556 1556 1557
1541 1541 1542 1542 1543 1543 1543 1544 1544 1544 1544 1544 1544 1544 1544 1545 1545 1545 1546 1546 1546 1547 1547 1547 1548 1548 1549 1549 1550 1551 1551 1552 1554 1554 1554 1555 1555 1556 1556 1556 1557 1557 1557
1540 1541 1541 1542 1542 1542 1542 1543 1543 1543 1543 1543 1543 1543 1543 1544 1544 1544 1545 1545 1546 1546 1546 1547 1547 1548 1548 1549 1550 1550 1551 1552 1554 1554 1554 1555 1555 1556 1556 1556 1557 1557 1558
1539 1540 1540 1540 1541 1541 1541 1541 1542 1542 1542 1542 1542 1542 1542 1543 1543 1544 1544 1544 1545 1545 1546 1546 1547 1547 1548 1548 1549 1550 1551 1552 1553 1554 1554 1554 1555 1555 1556 1556 1557 1557 1558
1538 1538 1539 1539 1539 1540 1540 1540 1540 1540 1540 1540 1541 1541 1541 1541 1542 1542 1543 1543 1544 1544 1545 1545 1546 1546 1547 1548 1548 1549 1550 1551 1552 1553 1553 1554 1554 1555 1555 1556 1557 1557 1557
1537 1537 1538 1538 1538 1538 1538 1538 1538 1538 1538 1539 1539 1539 1539 1540 1540 1540 1541 1542 1542 1543 1543 1544 1544 1545 1546 1547 1548 1548 1549 1550 1551 1552 1552 1553 1553 1554 1555 1555 1556 1557 1557
1536 1536 1536 1536 1537 1537 1537 1537 1537 1537 1537 1537 1537 1537 1537 1538 1538 1538 1539 1540 1540 1541 1542 1542 1543 1544 1545 1546 1546 1547 1548 1549 1550 1550 1551 1551 1552 1553 1554 1555 1555 1556 1556
1535 1535 1535 1535 1535 1535 1535 1535 1535 1535 1535 1535 1535 1535 1536 1536 1536 1536 1537 1538 1538 1539 1540 1541 1542 1542 1543 1544 1545 1546 1546 1547 1548 1549 1550 1550 1551 1552 1553 1554 1554 1555 1555
1533 1533 1533 1533 1533 1533 1533 1533 1533 1533 1533 1533 1533 1533 1534 1534 1534 1534 1535 1536 1536 1537 1538 1538 1540 1540 1541 1542 1543 1544 1545 1546 1547 1548 1548 1549 1550 1551 1552 1552 1553 1553 1554
1532 1531 1531 1531 1531 1532 1532 1531 1531 1531 1531 1531 1531 1531 1532 1532 1532 1532 1533 1533 1534 1535 1535 1536 1537 1538 1539 1540 1541 1542 1543 1544 1545 1546 1547 1548 1548 1549 1550 1551 1551 1552 1553
1530 1530 1529 1529 1529 1529 1529 1529 1529 1529 1529 1529 1529 1529 1529 1529 1530 1530 1530 1531 1531 1532 1533 1534 1535 1536 1537 1538 1539 1540 1541 1542 1543 1544 1545 1546 1547 1547 1548 1549 1550 1550 1551
1528 1528 1527 1527 1527 1527 1527 1526 1526 1526 1526 1526 1526 1526 1526 1527 1527 1527 1528 1528 1529 1529 1530 1531 1532 1533 1534 1535 1537 1537 1538 1540 1540 1541 1543 1543 1544 1545 1546 1547 1548 1548 1549
1527 1526 1526 1525 1524 1524 1524 1524 1523 1523 1523 1523 1523 1523 1524 1524 1524 1525 1525 1525 1526 1527 1527 1528 1530 1531 1532 1533 1534 1535 1536 1537 1538 1539 1540 1541 1542 1543 1544 1545 1546 1546 1547
1526 1525 1524 1523 1523 1522 1522 1521 1520 1520 1520 1520 1521 1521 1521 1521 1521 1522 1522 1522 1523 1524 1524 1525 1527 1528 1529 1530 1532 1533 1534 1534 1535 1536 1537 1539 1540 1541 1542 1543 1543 1544 1544
1524 1523 1522 1521 1521 1520 1519 1519 1518 1518 1517 1517 1517 1518 1518 1518 1518 1518 1519 1519 1520 1520 1521 1522 1523 1524 1526 1527 1529 1530 1532 1534 1532 1533 1534 1536 1537 1538 1539 1540 1541 1541 1542
1524 1522 1521 1520 1519 1518 1517 1516 1516 1515 1515 1515 1514 1514 1515 1515 1515 1515 1515 1516 1516 1517 1517 1518 1520 1521 1522 1524 1526 1527 1529 1529 1530 1531 1531 1532 1534 1535 1536 1537 1538 1538 1539
1523 1522 1520 1518 1517 1516 1515 1514 1513 1512 1512 1511 1511 1511 1511 1511 1511 1512 1512 1512 1513 1513 1514 1515 1516 1518 1519 1520 1522 1523 1525 1525 1527 1528 1529 1529 1530 1532 1533 1534 1535 1536 1536
1523 1521 1519 1517 1515 1514 1512 1511 1510 1510 1509 1508 1508 1507 1507 1507 1508 1508 1508 1509 1509 1510 1510 1511 1512 1513 1515 1516 1517 1519 1520 1522 1523 1525 1526 1527 1528 1528 1530 1531 1532 1532 1533
1522 1520 1518 1516 1513 1511 1510 1508 1507 1507 1506 1505 1504 1504 1503 1503 1503 1504 1504 1505 1505 1505 1506 1507 1508 1509 1510 1512 1513 1515 1516 1518 1519 1521 1522 1523 1524 1525 1526 1527 1528 1529 1530